Regional Weather Roundup
Issued by NWS Sioux Falls, SD

Home | Current Version | Previous Version | Graphics & Text | Print | Product List | Glossary Off
Versions: 1 2 3 4 5 6 7 8 9 10 11 12 13 14 15 16 17 18 19 20 21 22 23 24 25 26 27 28 29 30 31 32 33 34 35 36 37 38 39 40 41 42 43 44 45 46 47 48 49 50

000
ASUS43 KFSD 210210
RWRFSD

WEATHER ROUNDUP FOR SE SOUTH DAKOTA/SW MINNESOTA/NW IOWA
NATIONAL WEATHER SERVICE SIOUX FALLS SD
900 PM CDT SAT SEP 20 2014

NOTE: "FAIR" INDICATES FEW OR NO CLOUDS BELOW 12,000 FEET WITH NO
SIGNIFICANT WEATHER AND OR OBSTRUCTIONS TO VISIBILITY.


SDZ038>040-050-052>070-210300-
SOUTHEAST SOUTH DAKOTA

CITY           SKY/WX    TMP DP  RH WIND       PRES   REMARKS
CHAMBERLAIN    CLEAR     59  41  52 NW6       30.08R
HURON          MOCLDY    57  42  57 NW7       30.03R
MADISON        FAIR      55  46  71 NW8       30.02R
MITCHELL       CLEAR     58  46  64 NW8       30.04R
SIOUX FALLS    PTCLDY    65  44  46 N14       30.00R
WINNER         FAIR      64  38  38 NW9       30.11R
YANKTON        CLEAR     66  46  48 NW12      30.03R
$$

MNZ071-072-080-081-089-090-097-098-210300-
SOUTHWEST MINNESOTA

CITY           SKY/WX    TMP DP  RH WIND       PRES   REMARKS
FAIRMONT       CLEAR     59  52  77 NW13      29.94R
JACKSON        CLEAR     59  54  82 NW12      29.97R
LUVERNE        PTCLDY    64  45  48 N12G17    30.00R
MARSHALL       NOT AVBL
MONTEVIDEO     CLEAR     57  55  94 NW7       29.93R
PIPESTONE      PTCLDY    63  45  51 NW6       30.01R
REDWOOD FALLS  CLEAR     58  55  90 W6        29.92R
TRACY          CLEAR     59  54  82 W6        29.96R
WINDOM         CLEAR     59  54  82 W9        29.96R
WORTHINGTON    PTCLDY    57  52  82 NW9       29.99R
$$

IAZ001>003-012>014-020>022-031-032-NEZ013-014-SDZ071-210300-
NORTHWEST IOWA

CITY           SKY/WX    TMP DP  RH WIND       PRES   REMARKS
CHEROKEE       PTCLDY    66  54  64 N9        29.98R
DENISON        PTCLDY    68  59  73 NW13      29.93R
ESTHERVILLE    CLEAR     60  53  77 NW12      29.96R
LE MARS          N/A     68  54  60 N10G16    30.00R
ORANGE CITY    CLEAR     70  52  52 N10G16    30.00R
SHELDON        PTCLDY    61  55  82 N9        29.99R
SIOUX CITY     CLEAR     73  51  46 N18G29    29.98R
SPENCER        PTCLDY    62  52  69 N13       29.97R
$$

ABBREVIATIONS USED IN REMARKS
   TC - TEMPERATURE IN CELSIUS
  WCI - WIND CHILL INDEX
   HX - HEAT INDEX
  VSB - VISIBILITY



USA.gov is the U.S. government's official web portal to all federal, state and local government web resources and services.